Orbital Elements at Epoch 2459200.5 (2020-Dec-17.0) TDB
Reference: JPL 10 (heliocentric ecliptic J2000)
Element | Value | Uncertainty (1-sigma) | Units |
e | .1605004488912367 | 6.0122e-08 | |
a | 2.265067915528223 | 1.2619e-08 | au |
q | 1.901523498316805 | 1.3247e-07 | au |
i | 3.455381182827063 | 7.5023e-06 | deg |
node | 233.1101307929474 | 0.00010261 | deg |
peri | 85.74314442607437 | 0.00010946 | deg |
M | 179.125414521469 | 3.6323e-05 | deg |
tp | 2458580.951974676671 (2019-Apr-07.45197468) | 0.00012209 | TDB |
period | 1245.145976143248 3.41 | 1.0405e-05 2.849e-08 | d yr |
n | .2891227268910868 | 2.4161e-09 | deg/d |
Q | 2.62861233273964 | 1.4644e-08 | au |
|
| | Orbit Determination Parameters
Additional Information
|